Torna al catalogo

STARLINK-33558

AttivoComunicazioniVLEO
NORAD 63643·PAYLOAD·🇺🇸 United States

Lanciato Apr 25, 2025 da Cape Canaveral Space Force Station

Loading…

Prossimi Passaggi (prossime 24 ore)

TLE

AggiornatoSource: CelesTrak SupGP

Epoca: Sep 14, 2026, 13:56 UTC

1 63643C 25083K   26257.58104167 -.00045076  00000+0 -16329-2 0  2577
2 63643  43.0017  18.1882 0001541 268.8295 261.8377 15.27596263    19

Traccia STARLINK-33558 in tempo reale con AllMySat

Download on the App Store